#timestamp,LO_Frequency,Hit,StdDev 
1512432015.1,286047004.2,N
1512432016.0,286047004.2,N
1512432035.8,286047002.3,N
1512432055.7,286047004.2,N
1512432075.5,286047005.9,N
1512432095.3,286047005.3,N
1512432115.2,286047007.5,N
1512432135.9,286047005.5,N
1512432155.7,286047011.9,Y
1512432175.6,286046995.0,P
1512432195.4,286046993.5,N
1512432215.3,286046993.2,N
1512432235.1,286046993.6,N
1512432236.0,286046993.6,N
1512432255.8,286046997.2,N
1512432275.7,286046995.2,N
1512432295.5,286047001.1,N
1512432315.3,286046997.9,N
1512432335.2,286046998.1,N
1512432355.0,286046996.6,N
1512432355.9,286046996.6,N
1512432375.8,286046997.0,N
1512432395.6,286046998.4,N
1512432415.4,286046998.3,N
1512432435.3,286047000.8,N
1512432455.1,286046999.2,N
1512432475.8,286046994.3,N
1512432495.7,286046993.4,N
1512432515.5,286046994.1,N
1512432535.4,286046993.3,N
1512432555.2,286046995.7,N
1512432575.0,286046996.1,N
1512432575.9,286046996.1,N
1512432595.8,286046993.3,N
1512432615.6,286046996.0,N
1512432635.4,286046997.7,N
1512432655.3,286046998.2,N
1512432675.1,286047000.9,N
1512432695.9,286046995.6,N
1512432715.7,286047000.6,N
1512432735.5,286047002.7,N
1512432755.4,286047001.9,N
1512432775.2,286047001.9,N
1512432795.0,286046998.7,N
1512432795.9,286046998.7,N
1512432815.8,286046998.5,N
1512432835.6,286046998.6,N
1512432855.5,286046998.0,N
1512432875.3,286046996.8,N
1512432895.1,286046997.8,N
1512432915.9,286047001.1,N
1512432935.7,286046999.8,N
1512432955.5,286047004.4,N
1512432975.4,286047003.5,N
1512432995.2,286047009.1,N
1512433015.1,286047005.4,N
1512433016.0,286047005.4,N
1512433035.8,286047004.5,N
1512433055.6,286047010.1,N
1512433075.5,286047006.2,N
1512433095.3,286047003.5,N
1512433115.2,286047000.5,N
1512433135.9,286046999.2,N
1512433155.7,286046997.1,N
1512433175.6,286046999.5,N
1512433195.4,286046993.6,N
1512433215.2,286046995.2,N
1512433235.1,286046993.3,N
1512433236.0,286046993.3,N
1512433255.8,286046994.4,N
1512433275.7,286046990.3,N
1512433295.5,286046992.0,N
1512433315.3,286046997.2,N
1512433335.2,286046992.3,N
1512433355.0,286046994.9,N
1512433355.9,286046994.9,N
1512433375.7,286046998.2,N
1512433395.6,286046995.3,N
1512433415.4,286046996.4,N
1512433435.3,286046994.9,N
1512433455.1,286046995.3,N
1512433456.0,286046995.3,N
1512433475.8,286046994.0,N
1512433495.7,286046999.2,N
1512433515.5,286046998.7,N
1512433535.3,286047001.1,N
1512433555.2,286047000.0,N
1512433575.0,286046998.7,N
1512433575.9,286046998.7,N
1512433595.8,286047000.5,N
1512433615.6,286046999.8,N
1512433635.4,286047005.9,N
1512433655.3,286047002.8,N
1512433675.1,286046997.4,N
1512433695.8,286046997.7,N
1512433715.7,286046995.2,N
1512433735.5,286047000.4,N
1512433755.4,286046996.2,N
1512433775.2,286047000.4,N
1512433795.0,286047011.9,Y
1512433795.9,286047006.0,P
1512433815.8,286047004.1,N
1512433835.6,286046999.9,N
1512433855.5,286046999.4,N
1512433875.3,286046997.2,N
1512433895.1,286046998.2,N
1512433915.9,286047000.2,N
1512433935.7,286047000.5,N
1512433955.5,286047001.0,N
1512433975.4,286047002.8,N
1512433995.2,286047004.3,N
1512434015.1,286047007.2,N
1512434016.0,286047007.2,N
1512434035.8,286047006.4,N
1512434055.6,286047006.7,N
1512434075.5,286047003.9,N
1512434095.3,286047004.4,N
1512434115.1,286047004.2,N
1512434135.9,286047003.8,N
1512434155.7,286047003.5,N
1512434175.6,286047004.6,N
1512434195.4,286047006.4,N
1512434215.2,286047005.3,N
1512434235.1,286047005.7,N
1512434236.0,286047005.7,N
1512434255.8,286047008.0,N
1512434275.6,286047003.4,N
1512434295.5,286047006.0,N
1512434315.3,286047001.3,N
1512434335.2,286047001.5,N
1512434355.9,286047011.9,Y
1512434375.7,286047003.6,P
1512434395.6,286047001.7,P
1512434415.4,286047007.2,P
1512434435.3,286047005.2,N
1512434455.1,286047010.4,Y
1512434456.0,286047010.4,P
1512434475.8,286047000.2,N
1512434495.7,286046999.6,N
1512434515.5,286046995.8,N
1512434535.3,286046995.4,N
1512434555.2,286046995.8,N
1512434575.0,286046998.0,N
1512434575.9,286046998.0,N
1512434595.8,286046992.9,N
1512434615.6,286046990.5,N
1512434635.4,286046988.7,N
1512434655.3,286046987.7,N
1512434675.1,286046989.0,N
1512434695.8,286046989.4,N
1512434715.7,286046990.4,N
1512434735.5,286046996.2,N
1512434755.4,286046997.7,N
1512434775.2,286046993.0,N
1512434795.0,286046992.9,N
1512434795.9,286046992.9,N
1512434815.8,286046989.2,N
1512434835.6,286046992.6,N
1512434855.4,286046991.9,N
1512434875.3,286046987.2,N
1512434895.1,286046986.0,N
1512434915.9,286046986.0,N
1512434935.7,286046983.7,N
1512434955.5,286046987.3,N
1512434975.4,286046981.1,Y
1512434995.2,286046987.1,P
1512435015.0,286046990.2,P
1512435016.0,286046990.2,P
1512435035.8,286046988.7,Y
1512435055.6,286047000.6,P
1512435075.5,286046996.6,N
1512435095.3,286046999.6,N
1512435115.1,286046997.6,N
1512435135.9,286046995.8,N
1512435155.7,286046996.4,N
1512435175.6,286046996.1,N
1512435195.4,286046994.1,N
1512435215.2,286046994.4,N
1512435235.1,286046995.0,N
1512435236.0,286046995.0,N
1512435255.8,286046999.8,N
1512435275.6,286046997.4,N
1512435295.5,286046992.2,Y
1512435315.3,286046996.5,P
1512435335.2,286046997.4,P
1512435355.9,286046997.4,P
1512435375.7,286046995.1,Y
1512435395.6,286046995.9,P
1512435415.4,286046993.0,P
1512435435.3,286046994.9,P
1512435455.1,286047001.9,N
1512435456.0,286047001.9,N
1512435475.8,286047006.8,N
1512435495.7,286047005.7,N
1512435515.5,286047004.7,N
1512435535.3,286047001.5,N
1512435555.2,286047005.8,N
1512435575.0,286047002.0,N
1512435575.9,286047002.0,N
1512435595.8,286047004.7,N
